Location: Brooks Farm Pond
(32.9618°N, 86.0700°W)
Time: 23:03:05
(UTC+00:00)

CZ-4 R/B - Pass Details

Date: 29 October 2020
Orbit: 532 x 598 km, 97.7° (Epoch: 28 November)

Event Time Altitude Azimuth Distance (km) Brightness Sun altitude
Rises 23:44:24 0° 141° (SE) 2,706 4.6 -10.9°
Reaches altitude 10° 23:46:47 10° 128° (SE) 1,806 3.6 -11.4°
Maximum altitude 23:50:00 25° 72° (ENE) 1,112 2.3 -12.0°
Drops below altitude 10° 23:53:11 10° 16° (NNE) 1,795 3.7 -12.7°
Sets 23:55:33 0° 3° (N) 2,684 4.7 -13.2°
